TimeMDT,TemperatureF,Dew PointF,Humidity,Sea Level PressureIn,VisibilityMPH,Wind Direction,Wind SpeedMPH,Gust SpeedMPH,PrecipitationIn,Events,Conditions,WindDirDegrees,DateUTC
12:53 AM,37.9,15.1,39,29.66,10.0,SSW,19.6,27.6,N/A,,Overcast,200,2014-04-01 06:53:00
1:53 AM,35.1,21.9,59,29.68,7.0,SW,19.6,28.8,0.00,Snow,Light Snow,220,2014-04-01 07:53:00
2:53 AM,37.0,18.0,46,29.64,10.0,SSW,17.3,31.1,0.00,,Overcast,210,2014-04-01 08:53:00
3:53 AM,37.9,16.0,41,29.59,10.0,SSW,20.7,27.6,N/A,,Overcast,200,2014-04-01 09:53:00
4:53 AM,37.0,17.1,44,29.57,10.0,SSW,18.4,29.9,N/A,,Overcast,200,2014-04-01 10:53:00
5:53 AM,36.0,18.0,48,29.57,10.0,SSW,24.2,33.4,N/A,,Overcast,210,2014-04-01 11:53:00
6:53 AM,35.1,18.0,50,29.57,10.0,SSW,20.7,29.9,N/A,,Overcast,210,2014-04-01 12:53:00
7:53 AM,33.1,17.1,52,29.59,10.0,SW,12.7,21.9,N/A,,Overcast,230,2014-04-01 13:53:00
8:53 AM,33.1,12.9,43,29.62,10.0,SW,15.0,29.9,N/A,,Overcast,220,2014-04-01 14:53:00
9:53 AM,32.0,19.9,61,29.64,10.0,South,15.0,-,N/A,,Overcast,190,2014-04-01 15:53:00
10:46 AM,30.9,23.0,72,29.80,5.0,South,13.8,19.6,N/A,,Haze,180,2014-04-01 16:46:00
10:49 AM,30.2,24.8,80,29.81,1.8,South,13.8,19.6,0.00,Snow,Light Snow,190,2014-04-01 16:49:00
10:53 AM,30.0,25.0,82,29.68,0.8,SW,18.4,26.5,0.00,Snow,Light Snow,230,2014-04-01 16:53:00
10:59 AM,30.0,26.1,85,29.81,0.5,SW,13.8,26.5,0.00,Fog-Snow,Snow,230,2014-04-01 16:59:00
11:05 AM,32.0,28.0,85,29.81,1.0,West,11.5,24.2,0.00,Snow,Light Snow,260,2014-04-01 17:05:00
11:09 AM,32.0,27.0,82,29.81,3.0,WSW,8.1,24.2,0.00,Snow,Light Snow,240,2014-04-01 17:09:00
11:21 AM,32.0,24.1,73,29.82,7.0,WSW,15.0,21.9,0.00,,Overcast,240,2014-04-01 17:21:00
11:53 AM,36.0,21.0,55,29.65,10.0,SSE,15.0,-,0.00,,Mostly Cloudy,150,2014-04-01 17:53:00
12:00 PM,35.1,19.0,52,29.81,10.0,SW,10.4,21.9,N/A,,Overcast,230,2014-04-01 18:00:00
12:51 PM,35.6,21.2,56,29.81,10.0,West,19.6,27.6,N/A,,Overcast,260,2014-04-01 18:51:00
12:53 PM,35.1,21.0,57,29.65,10.0,WSW,20.7,27.6,N/A,,Overcast,250,2014-04-01 18:53:00
1:53 PM,37.9,16.0,41,29.65,10.0,SW,13.8,29.9,0.00,,Mostly Cloudy,220,2014-04-01 19:53:00
2:53 PM,37.9,19.0,47,29.64,10.0,WSW,17.3,27.6,0.00,,Mostly Cloudy,250,2014-04-01 20:53:00
3:53 PM,37.0,17.1,44,29.62,10.0,West,12.7,25.3,N/A,,Overcast,270,2014-04-01 21:53:00
4:53 PM,37.9,15.1,39,29.62,10.0,WSW,15.0,24.2,N/A,,Overcast,250,2014-04-01 22:53:00
5:53 PM,37.0,15.1,41,29.61,10.0,West,18.4,23.0,N/A,,Overcast,270,2014-04-01 23:53:00
6:53 PM,36.0,10.9,36,29.62,10.0,SW,18.4,28.8,N/A,,Overcast,230,2014-04-02 00:53:00
7:53 PM,34.0,12.9,42,29.63,10.0,West,12.7,-,N/A,,Overcast,260,2014-04-02 01:53:00
8:53 PM,32.0,15.1,50,29.65,10.0,West,8.1,-,N/A,,Overcast,260,2014-04-02 02:53:00
9:53 PM,28.9,21.0,72,29.69,9.0,WSW,11.5,-,0.00,Snow,Light Snow,240,2014-04-02 03:53:00
10:53 PM,28.0,21.9,78,29.71,10.0,West,5.8,-,0.00,,Partly Cloudy,270,2014-04-02 04:53:00
11:26 PM,28.0,21.9,78,29.78,10.0,NW,4.6,-,N/A,,Overcast,320,2014-04-02 05:26:00
11:53 PM,28.9,23.0,78,29.66,10.0,Calm,Calm,-,N/A,,Overcast,0,2014-04-02 05:53:00